CAPE
0 0 0 0 0 0 0 0 0 0 0 0 0 0 0 0 0 0 0 0 0 0 0 0 0 0 0 1 4 2 2 1 2 3 7 5 5 5 3 0 0 0 0
0 0 0 0 0 0 0 0 0 0 0 0 0 0 0 0 0 0 0 0 0 0 0 0 0 0 1 5 5 9 2 4 1 1 1 7 5 2 0 0 0 0 1
8 0 1 0 0 0 0 0 0 0 0 0 0 0 0 0 0 0 0 0 0 0 0 0 0 1 6 6 28 6 4 0 3 0 0 4 5 1 0 1 0 0 1
7 0 0 0 0 0 0 0 0 0 0 0 0 0 0 0 0 0 0 0 0 0 0 0 0 0 4 1 4 6 3 2 4 0 2 8 8 2 0 1 1 2 1
10 7 0 0 0 0 0 0 0 0 0 0 0 0 0 0 0 0 0 0 0 0 0 0 0 0 0 3 0 3 6 3 7 0 4 1 0 0 1 1 1 1 1
2 4 1 0 0 0 0 0 0 0 0 0 0 0 0 0 0 0 0 0 0 0 0 0 0 0 0 0 0 10 8 16 1 1 3 1 2 3 2 3 1 2 1
1 1 1 1 0 0 0 0 0 0 0 0 0 0 0 0 0 0 0 0 0 0 0 0 0 0 0 0 0 8 12 13 8 6 2 2 2 1 3 2 3 3 2
0 0 0 0 0 0 0 0 0 0 0 0 0 0 0 0 0 0 0 0 0 0 0 0 0 0 0 0 0 0 2 9 11 7 6 5 3 3 3 3 3 4 3
0 0 0 0 0 0 0 0 0 0 0 0 0 0 0 0 0 0 0 0 0 0 0 0 0 0 0 0 0 0 0 0 5 11 5 3 2 2 3 4 4 4 4
0 0 0 0 0 0 0 0 0 0 0 0 0 0 0 0 0 0 0 0 0 0 0 0 0 0 0 0 0 0 0 0 0 8 1 1 1 0 1 3 5 6 7
0 0 0 0 0 0 0 0 0 0 0 0 0 0 0 0 0 0 0 0 0 0 0 0 0 0 0 0 0 0 0 0 0 0 0 0 0 0 0 0 3 6 9
0 0 0 0 0 0 0 0 0 0 0 0 0 0 0 0 0 0 0 0 0 0 0 0 0 0 0 0 0 0 0 0 0 0 0 0 0 0 0 0 1 3 5
0 0 0 0 0 0 0 0 0 0 0 0 0 0 0 0 0 0 0 0 0 0 0 0 0 0 0 0 0 0 0 0 0 0 0 0 0 0 0 0 0 1 3
0 0 0 0 0 0 0 0 0 0 0 0 0 0 0 0 0 0 0 0 0 0 0 0 0 0 0 0 0 0 0 0 0 0 0 0 0 0 0 0 0 1 2
0 0 0 0 0 0 0 0 0 0 0 0 0 0 0 0 0 0 0 0 0 0 0 0 0 0 0 0 0 0 0 0 0 0 0 2 1 0 0 0 0 0 1
0 0 0 0 0 0 0 0 0 0 0 0 0 0 0 0 0 0 0 0 0 0 0 0 0 0 0 0 0 0 0 0 0 0 0 0 0 0 0 0 0 0 1
0 0 0 0 0 0 0 0 0 0 0 0 0 0 0 0 0 0 0 0 0 0 0 0 0 0 0 0 0 0 0 0 0 0 0 0 0 0 0 0 0 0 0
0 0 0 0 0 0 0 0 0 0 0 0 0 0 0 0 0 0 0 0 0 0 0 0 0 0 0 0 0 0 0 0 0 0 0 0 0 0 0 0 0 0 0
0 0 0 0 0 0 0 0 0 0 0 0 0 0 0 0 0 0 0 0 0 0 0 0 0 0 0 0 0 0 0 0 0 0 0 0 0 0 0 0 0 0 0
0 0 0 0 0 0 0 0 0 0 0 0 0 0 0 0 0 0 0 0 0 0 0 0 0 0 0 0 0 0 0 0 0 0 0 0 0 0 0 0 0 0 0
0 0 0 0 0 0 0 0 0 0 0 0 0 0 0 0 0 0 0 0 0 0 0 0 0 0 0 0 0 0 0 0 0 0 0 0 0 0 0 0 0 0 0
0 0 0 0 0 0 0 0 0 0 0 0 0 0 0 0 0 0 0 0 0 0 0 1 0 0 0 0 0 0 0 0 0 0 0 0 0 0 0 0 0 0 0
0 0 0 0 0 0 0 0 0 0 0 0 0 0 3 3 0 0 0 0 0 0 0 0 2 2 0 0 0 0 0 0 0 0 0 0 0 0 0 0 0 0 0
0 0 0 0 0 0 0 0 0 0 1 1 1 2 2 2 1 1 0 0 0 1 0 2 3 0 0 1 2 0 0 0 0 0 0 0 0 0 0 0 0 0 0
0 0 0 0 0 0 0 0 0 0 0 0 0 0 1 3 1 1 0 0 0 0 0 0 0 0 2 9 5 9 1 0 0 0 0 0 0 0 0 0 0 0 0
0 0 0 0 0 0 0 0 0 0 0 0 0 0 0 0 0 1 0 0 0 0 1 4 2 0 0 0 10 16 5 4 4 4 0 0 0 0 0 0 0 0 0
CIN
-0 -0 -0 -0 -0 -0 -0 -0 -0 -0 -0 -0 -0 -0 -0 -0 -0 -0 -0 -0 -0 -0 -0 -0 -0 -0 -0 -0 -0 -0 -0 -2 -0 -0 -1 -0 -1 -3 -5 -0 -0 -0 -0
-0 -0 -0 -0 -0 -0 -0 -0 -0 -0 -0 -0 -0 -0 -0 -0 -0 -0 -0 -0 -0 -0 -0 -0 -0 -0 -0 -0 -0 -0 -1 -1 -0 -0 -5 -1 -3 -1 -0 -0 -0 -0 -2
-31 -33 -30 -0 -0 -0 -0 -0 -0 -0 -0 -0 -0 -0 -0 -0 -0 -0 -0 -0 -0 -0 -0 -0 -0 -0 -0 -0 -1 -0 -0 -0 -0 -0 -1 -4 -0 -2 -0 -0 -0 -0 -0
-43 -12 -0 -0 -0 -0 -0 -0 -0 -0 -0 -0 -0 -0 -0 -0 -0 -0 -0 -0 -0 -0 -0 -0 -0 -0 -0 -0 -0 -0 -0 -0 -0 -0 -0 -5 -6 -5 -0 -0 -0 -2 -0
-32 -39 -17 -13 -0 -0 -0 -0 -0 -0 -0 -0 -0 -0 -0 -0 -0 -0 -0 -0 -0 -0 -0 -0 -0 -0 -0 -0 -0 -0 -1 -0 -0 -0 -0 -3 -1 -4 -0 -0 -0 -0 -0
-35 -51 -19 -0 -0 -0 -0 -0 -0 -0 -0 -0 -0 -0 -0 -0 -0 -0 -0 -0 -0 -0 -0 -0 -0 -0 -0 -0 -0 -0 -0 -0 -0 -0 -0 -0 -0 -0 -0 -0 -0 -0 -0
-0 -0 -0 -0 -0 -0 -0 -0 -0 -0 -0 -0 -0 -0 -0 -0 -0 -0 -0 -0 -0 -0 -0 -0 -0 -0 -0 -0 -0 -1 -0 -0 -0 -0 -0 -0 -0 -0 -0 -0 -0 -0 -0
-0 -0 -0 -0 -0 -0 -0 -0 -0 -0 -0 -0 -0 -0 -0 -0 -0 -0 -0 -0 -0 -0 -0 -0 -0 -0 -0 -0 -0 -0 -0 -1 -0 -0 -0 -0 -0 -0 -0 -0 -0 -0 -0
-0 -0 -0 -0 -0 -0 -0 -0 -0 -0 -0 -0 -0 -0 -0 -0 -0 -0 -0 -0 -0 -0 -0 -0 -0 -0 -0 -0 -0 -0 -0 -0 -0 -0 -0 -0 -0 -0 -0 -0 -0 -0 -0
-0 -0 -0 -0 -0 -0 -0 -0 -0 -0 -0 -0 -0 -0 -0 -0 -0 -0 -0 -0 -0 -0 -0 -0 -0 -0 -0 -0 -0 -0 -0 -0 -0 -0 -0 -0 -0 -0 -0 -0 -0 -0 -0
-0 -0 -0 -0 -0 -0 -0 -0 -0 -0 -0 -0 -0 -0 -0 -0 -0 -0 -0 -0 -0 -0 -0 -0 -0 -0 -0 -0 -0 -0 -0 -0 -0 -0 -0 -0 -0 -0 -0 -0 -0 -0 -0
-0 -0 -0 -0 -0 -0 -0 -0 -0 -0 -0 -0 -0 -0 -0 -0 -0 -0 -0 -0 -0 -0 -0 -0 -0 -0 -0 -0 -0 -0 -0 -0 -0 -0 -0 -0 -0 -0 -0 -0 -0 -0 -0
-0 -0 -0 -0 -0 -0 -0 -0 -0 -0 -0 -0 -0 -0 -0 -0 -0 -0 -0 -0 -0 -0 -0 -0 -0 -0 -0 -0 -0 -0 -0 -0 -0 -0 -0 -0 -0 -0 -0 -0 -0 -0 -0
-0 -0 -0 -0 -0 -0 -0 -0 -0 -0 -0 -0 -0 -0 -0 -0 -0 -0 -0 -0 -0 -0 -0 -0 -0 -0 -0 -0 -0 -0 -0 -0 -0 -0 -0 -0 -0 -0 -0 -0 -0 -0 -0
-0 -0 -0 -0 -0 -0 -0 -0 -0 -0 -0 -0 -0 -0 -0 -0 -0 -0 -0 -0 -0 -0 -0 -0 -0 -0 -0 -0 -0 -0 -0 -0 -0 -0 -0 -0 -0 -0 -0 -0 -0 -0 -0
-0 -0 -0 -0 -0 -0 -0 -0 -0 -0 -0 -0 -0 -0 -0 -0 -0 -0 -0 -0 -0 -0 -0 -0 -0 -0 -0 -0 -0 -0 -0 -0 -0 -0 -0 -0 -0 -0 -0 -0 -0 -0 -0
-0 -0 -0 -0 -0 -0 -0 -0 -0 -0 -0 -0 -0 -0 -0 -0 -0 -0 -0 -0 -0 -0 -0 -0 -0 -0 -0 -0 -0 -0 -0 -0 -0 -0 -0 -0 -0 -0 -0 -0 -0 -0 -0
-0 -0 -0 -0 -0 -0 -0 -0 -0 -0 -0 -0 -0 -0 -0 -0 -0 -0 -0 -0 -0 -0 -0 -0 -0 -0 -0 -0 -0 -0 -0 -0 -0 -0 -0 -0 -0 -0 -0 -0 -0 -0 -0
-0 -0 -0 -0 -0 -0 -0 -0 -0 -0 -0 -0 -0 -0 -0 -0 -0 -0 -0 -0 -0 -0 -0 -0 -0 -0 -0 -0 -0 -0 -0 -0 -0 -0 -0 -0 -0 -0 -0 -0 -0 -0 -0
-0 -0 -0 -0 -0 -0 -0 -0 -0 -0 -0 -0 -0 -0 -0 -0 -0 -0 -0 -0 -0 -0 -0 -0 -0 -0 -0 -0 -0 -0 -0 -0 -0 -0 -0 -0 -0 -0 -0 -0 -0 -0 -0
-0 -0 -0 -0 -0 -0 -0 -0 -0 -0 -0 -0 -0 -0 -0 -0 -0 -0 -0 -0 -0 -0 -0 -0 -0 -0 -0 -0 -0 -0 -0 -0 -0 -0 -0 -0 -0 -0 -0 -0 -0 -0 -0
-0 -0 -0 -0 -0 -0 -0 -0 -0 -0 -0 -0 -1 -0 -0 -0 -0 -0 -0 -0 -0 -2 -0 -0 -0 -0 -0 -0 -0 -0 -0 -0 -0 -0 -0 -0 -0 -0 -0 -0 -0 -0 -0
-0 -0 -0 -0 -0 -0 -0 -0 -0 -0 -0 -0 -0 -0 -0 -0 -0 -0 -0 -0 -0 -0 -0 -0 -0 -0 -0 -0 -0 -0 -0 -0 -0 -0 -0 -0 -0 -0 -0 -0 -0 -0 -0
-0 -0 -0 -0 -0 -0 -0 -0 -0 -0 -0 -0 -0 -0 -0 -0 -0 -0 -0 -0 -0 -0 -0 -0 -0 -0 -0 -0 -2 -0 -0 -0 -0 -0 -0 -0 -0 -0 -0 -0 -0 -0 -0
-0 -0 -0 -0 -0 -0 -0 -0 -0 -0 -0 -0 -0 -0 -0 -0 -0 -2 -1 -0 -0 -0 -0 -0 -0 -0 -2 -0 -0 -0 -1 -0 -0 -0 -0 -0 -0 -0 -0 -0 -0 -0 -0
-0 -0 -0 -0 -0 -0 -0 -0 -0 -1 -0 -0 -0 -0 -0 -1 -2 -3 -0 -0 -0 -0 -1 -1 -5 -0 -0 -0 -0 -0 -0 -0 -0 -0 -0 -0 -0 -0 -0 -0 -0 -0 -0
Wind_Speed
16 15 16 17 18 19 20 19 19 19 20 22 23 22 22 21 20 20 21 21 22 22 21 19 19 19 18 17 17 18 17 20 20 22 21 19 18 18 19 20 21 21 21
18 18 18 18 19 20 20 21 21 23 24 24 24 24 23 23 23 22 22 22 22 22 22 20 20 20 19 18 17 16 18 20 20 21 23 19 19 19 20 22 22 22 23
17 18 19 20 21 20 19 21 23 24 26 26 28 27 26 26 25 24 23 23 23 23 23 21 20 19 19 19 15 18 19 20 21 21 22 22 19 19 19 20 20 20 21
20 21 22 22 22 22 21 22 23 25 27 28 29 29 29 28 28 27 26 25 24 24 23 23 23 21 19 19 18 19 19 20 19 21 19 19 18 19 19 21 20 21 20
23 24 26 27 25 23 23 23 26 27 29 30 31 30 30 30 30 29 28 27 26 26 25 24 23 22 23 18 21 20 18 21 18 20 20 20 20 20 21 21 20 20 20
26 26 26 27 26 26 26 25 26 28 29 30 31 33 33 33 33 32 30 28 27 27 27 26 25 23 22 22 23 21 19 18 20 20 20 21 21 21 21 20 20 20 19
26 27 28 28 27 27 27 28 29 30 31 30 33 35 36 35 35 35 33 31 30 28 28 28 28 27 26 25 25 22 21 20 22 21 20 22 22 22 21 21 20 19 19
26 25 25 27 27 29 30 30 31 33 33 30 33 35 41 39 35 36 35 35 34 32 30 29 30 30 29 29 28 28 26 25 23 21 22 22 23 23 22 22 21 20 19
27 27 27 27 26 27 30 31 31 32 35 33 31 33 37 38 37 32 33 36 37 37 36 34 33 33 33 32 31 31 30 29 26 22 22 23 23 23 24 23 23 22 21
28 28 28 28 28 28 29 30 31 32 32 37 34 34 35 36 42 47 37 35 33 35 37 38 38 37 35 34 33 32 31 30 30 25 22 22 23 23 24 25 24 23 21
29 29 29 29 29 30 31 32 33 32 32 34 35 36 36 37 38 42 50 44 41 39 39 40 39 39 37 36 35 34 34 33 33 28 22 22 22 23 24 24 24 24 23
30 31 31 31 30 31 32 33 33 35 35 35 35 36 38 39 41 42 47 50 50 47 44 42 43 43 40 37 36 35 36 35 33 27 24 23 24 24 24 23 24 23 23
33 34 33 33 33 33 33 33 33 34 36 38 39 38 38 39 40 42 46 50 53 48 46 44 43 42 41 39 38 36 36 36 34 30 29 27 27 27 26 24 22 22 23
34 35 35 35 35 36 36 36 35 35 36 37 40 40 41 40 40 41 44 47 54 54 49 49 42 42 42 41 40 38 37 36 35 34 32 31 31 31 29 27 26 24 23
36 38 39 39 39 39 40 40 40 40 40 39 40 40 41 42 42 42 43 44 48 57 58 48 47 41 43 42 42 39 39 39 38 37 35 33 32 31 30 30 30 27 25
39 41 42 42 42 42 43 43 43 43 44 44 43 45 44 42 42 42 43 44 45 51 62 49 49 45 44 44 44 42 42 41 40 39 37 36 34 32 31 29 28 29 28
41 43 43 44 45 46 45 47 47 47 49 49 48 48 48 46 46 44 42 43 46 47 58 57 50 47 48 48 47 45 44 43 43 42 40 39 37 35 33 32 30 28 27
42 44 46 47 48 49 49 51 52 51 52 54 52 53 53 49 49 47 47 47 46 46 53 60 53 50 49 47 47 48 47 45 45 44 42 41 40 38 37 35 34 32 31
44 46 47 50 51 52 53 53 54 56 55 55 55 56 56 55 57 52 49 52 50 49 48 56 59 50 48 46 49 48 47 47 46 46 45 44 43 41 39 38 37 36 34
46 48 49 51 53 54 54 55 55 56 57 57 57 57 58 57 57 56 55 55 53 55 55 56 57 56 51 47 45 48 50 47 49 46 46 46 45 45 43 40 39 38 37
46 48 51 53 53 54 54 56 57 58 60 61 60 59 58 58 58 57 57 57 57 58 58 59 60 58 56 52 52 47 50 47 47 46 47 47 46 46 46 44 42 39 38
47 49 51 53 55 54 55 57 57 59 60 61 63 61 60 60 59 60 60 59 58 59 62 61 62 63 60 55 52 52 51 49 53 38 44 51 44 47 47 46 44 42 40
49 51 53 54 56 55 55 56 57 58 59 60 61 61 62 59 59 59 59 61 62 62 62 63 66 65 64 58 54 55 53 53 54 45 40 49 40 49 46 46 45 44 43
50 52 54 53 53 53 55 57 57 56 56 56 56 56 57 58 57 58 60 62 62 61 61 60 63 67 64 61 58 57 56 56 54 50 43 54 42 47 41 43 46 45 45
49 51 51 51 52 53 54 55 55 53 52 51 49 48 48 49 50 52 54 57 60 62 59 63 66 68 68 66 62 58 60 59 63 57 46 52 49 47 43 44 41 42 44
49 49 49 48 49 51 51 52 51 48 47 45 43 42 43 45 47 47 49 52 58 57 56 57 59 62 65 66 65 62 62 62 62 61 52 52 51 46 51 43 42 41 42
Wind_Direction
294 296 297 300 302 304 304 306 307 306 305 303 304 304 306 308 311 314 315 315 313 312 313 316 317 318 319 317 316 315 314 310 308 305 305 305 303 304 303 301 300 299 300
292 295 293 294 298 300 302 300 301 301 300 300 300 302 302 304 306 307 309 312 313 312 310 312 314 315 315 316 316 316 313 311 308 305 302 305 305 304 303 301 299 298 296
290 296 294 293 294 296 299 300 299 299 297 296 295 296 297 299 300 302 304 306 308 309 309 309 311 312 312 313 315 312 312 309 307 306 300 301 306 306 307 305 304 302 298
295 296 297 295 297 293 292 295 298 297 296 294 293 293 294 295 296 297 299 300 302 304 305 307 306 306 308 309 310 310 307 309 309 309 306 306 307 307 306 304 303 302 302
298 297 296 296 297 294 291 292 294 295 296 294 293 293 292 292 293 294 295 296 297 299 300 302 304 305 304 306 307 306 307 307 306 305 305 306 304 304 304 304 303 303 301
303 302 300 299 297 294 292 292 294 294 296 295 294 292 292 291 290 290 291 293 294 294 295 297 298 300 301 301 303 300 302 305 305 305 303 302 302 301 301 303 303 303 302
315 309 305 303 301 298 295 293 294 294 294 296 295 293 292 290 289 288 288 289 290 291 292 292 293 294 295 296 297 298 298 299 301 302 303 300 299 298 299 299 301 301 301
328 325 318 312 309 304 301 299 296 293 293 293 293 295 291 292 292 288 285 285 285 287 288 289 289 289 290 290 291 291 291 292 295 297 299 298 298 298 297 297 297 297 298
333 330 326 323 319 314 307 304 300 297 294 295 292 291 292 290 295 297 294 285 283 283 284 285 286 286 287 287 287 288 288 289 290 290 293 295 296 296 295 294 294 295 294
336 332 329 326 321 319 315 309 306 302 299 294 294 290 290 291 290 288 289 292 292 286 284 282 282 283 284 285 286 286 287 286 287 286 287 291 293 294 293 291 291 292 293
336 334 331 327 322 319 316 314 310 306 302 298 295 294 292 291 290 288 286 286 286 286 284 283 283 283 282 283 284 284 284 284 283 282 279 284 290 292 291 290 289 289 290
333 333 332 330 327 323 319 315 312 308 303 300 298 296 293 292 291 288 286 285 284 284 284 283 281 280 282 282 282 282 281 281 281 276 274 278 284 288 289 288 287 286 286
327 327 328 328 326 325 323 321 318 313 308 304 300 297 296 293 292 290 289 286 283 285 285 283 282 282 282 281 280 279 278 278 277 275 274 275 280 283 285 284 283 283 283
320 321 321 322 322 322 320 319 317 316 314 309 304 301 298 296 294 292 289 289 285 282 284 283 285 282 281 281 280 278 276 274 273 273 273 275 277 279 280 279 279 279 279
319 318 319 318 317 317 317 315 312 310 309 309 307 304 302 300 297 293 291 288 285 283 280 284 285 286 283 281 279 278 275 274 271 270 272 273 275 276 277 276 275 274 274
320 317 316 315 315 314 314 313 312 310 307 305 304 302 302 301 300 297 293 290 287 283 280 286 285 286 285 282 280 278 275 274 271 269 269 270 271 272 273 272 272 273 272
319 316 316 315 314 311 312 309 308 307 305 302 302 300 299 300 298 297 297 294 289 287 282 284 286 286 284 282 280 277 275 273 272 269 267 267 267 268 269 270 269 268 267
319 316 315 314 313 311 309 307 306 305 302 299 299 297 295 297 296 297 295 292 292 291 285 282 287 286 284 283 281 278 275 273 272 271 268 266 265 265 265 266 267 267 266
318 317 315 313 311 310 308 306 305 302 299 297 296 294 293 293 290 292 293 289 289 288 288 284 283 288 286 285 281 279 276 274 272 271 270 267 265 263 263 264 264 264 263
318 317 316 314 312 310 308 305 303 300 298 297 295 293 292 291 290 290 288 287 287 285 284 283 284 284 285 285 284 281 278 275 273 271 270 268 267 264 261 260 261 261 261
319 318 316 315 313 312 309 306 304 301 298 295 294 293 292 290 289 288 288 286 285 283 283 282 280 281 281 280 279 282 279 279 275 271 270 268 266 265 263 260 260 259 259
320 319 318 316 315 313 311 308 306 302 299 296 294 293 291 290 289 288 286 285 284 282 280 280 279 278 278 278 279 278 278 277 276 274 271 269 265 263 263 261 259 258 257
320 320 319 318 316 314 313 310 307 304 301 298 296 294 292 291 290 288 287 285 283 281 279 278 277 275 276 276 277 276 274 273 273 276 273 271 267 265 263 263 259 256 255
321 321 321 321 319 318 315 312 309 306 303 301 299 297 294 292 291 289 288 285 283 281 279 278 276 275 275 275 273 273 273 272 272 272 269 270 271 269 268 265 262 258 256
324 324 324 322 321 320 319 316 313 310 307 304 303 301 300 298 297 294 291 288 286 283 283 280 277 276 274 272 271 272 268 268 267 267 267 268 268 270 269 267 264 259 258
325 326 325 325 324 323 322 320 317 314 310 309 308 306 305 303 301 300 297 295 290 290 289 286 281 277 274 271 269 265 266 265 266 266 265 264 267 267 270 269 266 263 259